Location: Ladrillo (historical)
(32.8195°N, 117.2231°W)
Time: 11:56:15
(UTC+00:00)

Vanguard 3 - Pass Details

Date: 27 February 2021
Orbit: 508 x 3262 km, 33.3° (Epoch: 19 April)

Event Time Altitude Azimuth Distance (km) Brightness Sun altitude
Rises 19:19:20 0° 182° (S) 6,910 12.5 47.9°
Reaches altitude 10° 19:28:11 10° 160° (SSE) 6,157 12.6 48.4°
Maximum altitude 19:36:00 14° 136° (SE) 5,860 12.3 48.7°
Drops below altitude 10° 19:43:34 10° 112° (ESE) 5,999 12.0 48.9°
Sets 19:51:38 0° 90° (E) 6,620 11.8 49.1°
